Location: Unspecified
(0.0000°N, 0.0000°E)
Time: 01:28:09
(UTC+00:00)

Vanguard 2 Rocket - Pass Details

Date: 27 November 2019
Orbit: 554 x 3326 km, 32.9° (Epoch: 11 December)

Event Time Altitude Azimuth Distance (km) Brightness Sun altitude
Rises 05:50:19 0° 310° (NW) 3,718 9.4 0.7°
Reaches altitude 10° 05:52:28 10° 313° (NW) 3,008 9.0 1.2°
Maximum altitude 06:00:06 74° 38° (NE) 1,700 8.4 2.9°
Drops below altitude 10° 06:14:11 10° 121° (ESE) 5,275 13.2 6.2°
Sets 06:19:13 0° 122° (ESE) 6,661 13.4 7.4°
